Location: Unspecified
(0.0000°N, 0.0000°E)
Time: 09:34:51
(UTC+00:00)

Vanguard 2 - Pass Details

Date: 12 October 2022
Orbit: 553 x 2923 km, 32.9° (Epoch: 28 November)

Event Time Altitude Azimuth Distance (km) Brightness Sun altitude
Rises 20:07:05 0° 283° (WNW) 6,711 13.2 -34.8°
Reaches altitude 10° 20:12:05 10° 276° (W) 5,755 12.7 -36.0°
Maximum altitude 20:27:41 37° 215° (SW) 3,648 11.0 -39.9°
Enters shadow 20:38:33 15° 157° (SSE) 4,338 11.2 -42.6°
